Home > Weather > Kolonia > Past weeks

Flag for Micronesia Past Weather in Kolonia, Pohnpei, Micronesia — Yesterday and Last 2 Weeks

Now
85 °F

Overcast.


Feels Like: 95 °F
Forecast: 78 / 87 °F
Wind: 5 mph from Southeast

Location: Pohnpei

Current Time: Jul 28, 2016 at 10:08:23 AM

Latest Report: Jul 28, 2016 at 8:50 AM


Visibility: 15 mi

Pressure: 29.83 "Hg

Humidity: 77%

Dew Point: 77 °F

Location of KoloniaLocation

Past Weather in Kolonia — Graph

°F

Kolonia Temperature Yesterday

Maximum temperature yesterday: 87 °F (at 1:50 PM)
Minimum temperature yesterday: 77 °F (at 12:53 AM)
Average temperature yesterday: 82 °F

High & Low Weather Summary for the Past Weeks

 TemperatureHumidityPressure
High90 °F (Jul 15, 11:55 AM)98% (Jul 14, 5:52 AM)29.93 "Hg (Jul 14, 5:52 AM)
Low73 °F (Jul 23, 8:57 AM)57% (Jul 13, 10:56 AM)29.74 "Hg (Jul 23, 3:52 PM)
Average81 °F85%29.83 "Hg
* Reported Jul 13 8:56 AM — Jul 28 8:50 AM, Kolonia, Weather by CustomWeather, © 2016

Note: Actual official high and low records may vary slightly from our data, if they occured in-between our weather recording intervals... More about our weather records

Advertising

Kolonia Weather History for the Previous 24 Hours

Scroll right to see more
 ConditionsComfort  
Time TempWeatherWind HumidityBarometerVisibility
8:50 AM
Thu, Jul 28
85 °FOvercast.5 mph77%29.83 "Hg15 mi
7:52 AM81 °FOvercast.6 mph86%29.83 "Hg15 mi
6:53 AM77 °FOvercast.5 mph95%29.81 "Hg15 mi
5:52 AM76 °FPassing clouds.5 mph94%29.80 "Hg15 mi
4:53 AM77 °FPassing clouds.5 mph93%29.80 "Hg15 mi
3:58 AM78 °FPassing clouds.2 mph88%29.80 "Hg15 mi
2:53 AM78 °FPassing clouds.2 mph90%29.80 "Hg15 mi
1:55 AM79 °FMostly cloudy.2 mph89%29.80 "Hg15 mi
12:56 AM82 °FMostly cloudy.5 mph81%29.82 "Hg15 mi
11:50 PM
Wed, Jul 27
83 °FPassing clouds.6 mph82%29.83 "Hg15 mi
10:50 PM83 °FPassing clouds.12 mph81%29.85 "Hg15 mi
9:50 PM83 °FPassing clouds.12 mph85%29.83 "Hg15 mi
8:50 PM83 °FMostly cloudy.6 mph84%29.83 "Hg15 mi
7:50 PM83 °FMostly cloudy.6 mph84%29.81 "Hg15 mi
6:55 PM85 °FMostly cloudy.7 mph78%29.79 "Hg15 mi
5:50 PM84 °FMostly cloudy.12 mph78%29.78 "Hg15 mi
4:50 PM84 °FSprinkles. Mostly cloudy.9 mph84%29.77 "Hg14 mi
3:52 PM86 °FMostly cloudy.12 mph73%29.75 "Hg15 mi
2:52 PM87 °FBroken clouds.7 mph73%29.75 "Hg15 mi
1:50 PM87 °FBroken clouds.12 mph72%29.77 "Hg15 mi
12:50 PM87 °FBroken clouds.9 mph75%29.79 "Hg15 mi
11:50 AM87 °FBroken clouds.9 mph75%29.81 "Hg15 mi
10:51 AM87 °FCloudy.10 mph73%29.83 "Hg15 mi
Weather by CustomWeather, © 2016

See weather overviewHow to use our weather pages